Torna al catalogo

SL-6 R/B(2)

AttivoHEO
NORAD 22241·ROCKET BODY·🇷🇺 Russia

Lanciato Nov 25, 1992 da Plesetsk Cosmodrome

Loading…

Prossimi Passaggi (prossime 24 ore)

TLE

AggiornatoSource: Space-Track

Epoca: Sep 11, 2026, 06:01 UTC

1 22241U 92081D   26254.25100176 -.00000930  00000-0  00000-0 0  9995
2 22241  68.6272   1.8767 6388853  13.8140 357.4934  2.03451396251074

Traccia SL-6 R/B(2) in tempo reale con AllMySat

Download on the App Store